Location: Hawks Ness
(60.2333°N, 1.1667°W)
Time: 20:48:14
(UTC+00:00)

Cosmos 1726 - Pass Details

Date: 27 January 2020
Orbit: 483 x 499 km, 82.5° (Epoch: 27 February)

Event Time Altitude Azimuth Distance (km) Brightness Sun altitude
Exits shadow 04:04:51 16° 68° (ENE) 1,339 5.0 -32.3°
Drops below altitude 10° 04:06:29 10° 43° (NE) 1,682 5.5 -32.1°
Sets 04:09:06 0° 23° (NNE) 2,567 6.3 -31.8°
